NOAA 16 DEB, 41063

Orbit data source: Space-Track

NOAA 16 DEB, 41063 is space debris in SSO originally from a launch on Thu, 21 Sep 2000 UTC launched from the Air Force Western Test Range (AFWTR). Debris objects in space refer to the collection of defunct objects orbiting the Earth. Examples of debris include non-operational satellites, rocket bodies, and fragments generated from explosions, collisions, or faulty payload assembly.

Loading next visibility...
Identifier
41063, 2000-055W
Orbit
SSO
Country
Flag of USUS
Related business
Manufacturer
Unknown
Mission
Spacecraft
Bus & Motor
Unknown
Mass
Unknown
Launch date (UTC)
2000-09-21 (26 years ago)
Launch vehicle
Unknown
Launch site
Air Force Western Test Range (AFWTR)
Object type
Payload
Rocket body
Debris
Shape & HBR
Unknown shape, 0.1 m
Radar Cross Section
Medium (>0.1 m² and <1 m²)

Expand to show TLE details & history
Last TLE update: 11 hours ago

TLE from 11 hours ago
0 NOAA 16 DEB
1 41063U 00055W   26236.19802755  .00002051  00000-0  88554-3 0  9991
2 41063  98.7486 317.6053 0019992 227.3367 132.6128 14.25467145554560
Epoch: 2026-08-24T04:45Z
TLE epoch observation values (Epoch: 2026-08-24T04:45:09.580Z)
Latitude
-0.00004°
Longitude
-86.16779°
Altitude
819.586 km
Speed
7.438 km/s
True Right ascension
21h 10m 25s
True Declination
0° 00' 00"
Sunlit
Object was in full shadow at epoch
Visualization orbit readout
Latitude
Unknown
Longitude
Unknown
Altitude
Unknown
Speed
Unknown
Apparent Right ascension
Unknown
Apparent Declination
Unknown
Sunlit
N/A
Visualization observer readout
Local Sidereal Time
07:26:00
Azimuth
Unknown
Elevation
Unknown
Doppler factor
Unknown
Orbital elements
Apogee altitude
818.434 km
Perigee altitude
789.717 km
Semi-major axis
7,182.213 km
Eccentricity
0.002
Inclination
98.7486°
RAAN
317.6053°
Arg. of periapsis
227.3367°
True anomaly
132.78111°
Mean anomaly
132.6128°
Eccentric anomaly
132.69699°
Mean motion
3.56579 °/min
Orbital period
100.96 mins
BSTAR
0.00088554
Loading maneuver chart data...
Computing Atmospheric mass density...

Documentation

Showing up to 5 results
|